TimeCST,TemperatureF,Dew PointF,Humidity,Sea Level PressureIn,VisibilityMPH,Wind Direction,Wind SpeedMPH,Gust SpeedMPH,PrecipitationIn,Events,Conditions,WindDirDegrees,DateUTC
12:51 AM,48.2,44.6,87,29.98,10.0,SSE,8.1,-,N/A,,Overcast,150,2013-01-27 06:51:00
12:53 AM,50.0,45.0,83,29.91,10.0,SSE,8.1,-,N/A,,Overcast,150,2013-01-27 06:53:00
1:53 AM,52.0,48.9,89,29.90,9.0,South,8.1,-,N/A,,Overcast,190,2013-01-27 07:53:00
2:02 AM,53.6,50.0,88,29.97,8.0,South,9.2,18.4,N/A,,Overcast,190,2013-01-27 08:02:00
2:12 AM,53.6,50.0,88,29.97,8.0,South,10.4,-,N/A,,Overcast,190,2013-01-27 08:12:00
2:53 AM,55.9,53.1,90,29.86,7.0,SSW,15.0,-,N/A,,Overcast,200,2013-01-27 08:53:00
3:53 AM,57.0,54.0,89,29.85,7.0,SSW,18.4,-,N/A,,Overcast,210,2013-01-27 09:53:00
4:53 AM,57.0,54.0,89,29.84,6.0,SSW,17.3,26.5,N/A,,Overcast,210,2013-01-27 10:53:00
5:53 AM,57.9,54.0,87,29.83,7.0,SSW,20.7,27.6,N/A,,Overcast,210,2013-01-27 11:53:00
6:53 AM,57.0,53.1,87,29.84,7.0,SSW,18.4,-,N/A,,Mostly Cloudy,210,2013-01-27 12:53:00
7:53 AM,55.0,53.1,93,29.86,7.0,SSW,19.6,25.3,N/A,,Mostly Cloudy,210,2013-01-27 13:53:00
8:53 AM,57.0,53.1,87,29.85,8.0,SSW,17.3,-,N/A,,Mostly Cloudy,210,2013-01-27 14:53:00
9:53 AM,60.1,52.0,75,29.86,10.0,SW,19.6,24.2,N/A,,Mostly Cloudy,220,2013-01-27 15:53:00
10:53 AM,66.0,48.9,54,29.85,10.0,SW,21.9,27.6,N/A,,Scattered Clouds,220,2013-01-27 16:53:00
11:53 AM,71.1,42.1,35,29.83,9.0,WSW,27.6,36.8,N/A,,Scattered Clouds,240,2013-01-27 17:53:00
12:53 PM,73.0,36.0,26,29.79,4.0,West,33.4,42.6,N/A,,Widespread Dust,260,2013-01-27 18:53:00
1:53 PM,73.9,36.0,25,29.75,8.0,WSW,29.9,36.8,N/A,,Partly Cloudy,240,2013-01-27 19:53:00
2:53 PM,75.0,33.1,22,29.74,10.0,West,24.2,36.8,N/A,,Scattered Clouds,260,2013-01-27 20:53:00
3:53 PM,73.0,32.0,22,29.75,10.0,SW,27.6,36.8,N/A,,Scattered Clouds,230,2013-01-27 21:53:00
4:53 PM,71.1,35.1,27,29.76,10.0,WSW,23.0,33.4,N/A,,Scattered Clouds,240,2013-01-27 22:53:00
5:53 PM,68.0,35.1,30,29.77,10.0,SW,21.9,32.2,N/A,,Scattered Clouds,230,2013-01-27 23:53:00
6:53 PM,64.9,35.1,33,29.79,10.0,SW,17.3,-,N/A,,Partly Cloudy,220,2013-01-28 00:53:00
7:53 PM,64.0,35.1,34,29.82,10.0,SW,19.6,-,N/A,,Partly Cloudy,230,2013-01-28 01:53:00
8:53 PM,62.1,35.1,37,29.83,10.0,WSW,18.4,-,N/A,,Clear,240,2013-01-28 02:53:00
9:53 PM,59.0,36.0,42,29.83,10.0,West,16.1,-,N/A,,Clear,260,2013-01-28 03:53:00
10:53 PM,55.0,36.0,49,29.84,10.0,WSW,10.4,-,N/A,,Clear,250,2013-01-28 04:53:00
11:53 PM,55.0,36.0,49,29.83,10.0,WSW,10.4,-,N/A,,Clear,240,2013-01-28 05:53:00